www.pogodaiklimat.ru

Погода и климат >> Архив погоды >> Украина >> Ямполь


ПОГОДА в Ямполе

  • Прогноз погоды в Ямполе
  • Монитор погоды в Ямполе

АРХИВ ПОГОДЫ в Ямполе

Время (UTC), дата Ветер
(напр.,м/с)
 
Видим.   Явления Облачность Т
(С)
Тd
(С)
f
(%)
Тe
(С)
Тes
(С)
Комфортность P
(гПа)
Po
(гПа)
Тmin
(С)
Tmax
(С)
R
(мм)
R24
(мм)
S
(см)
18 18.06 СВ 1 30 км 8/3 600 м
[Sc Ac trans Ci fib]
+23.6 +16.8 66 +27 +27 жарко 1017.0 984.5 +26.0
21 18.06 штиль 0 10 км 4/0
[Ci fib]
+20.2 +16.2 78 +23 +23 комфорт 1017.8 984.9
00 19.06 С 1 10 км 3/0
[Ac trans Ci fib]
+18.3 +15.8 85 +20 +20 1017.6 984.5
03 19.06 штиль 0 20 км 5/1 600 м
[Cb calv Ac trans Ci fib]
+17.0 +15.6 91 +17 +17 1017.5 984.3
06 19.06 В 2 26 км 3/0
[Ac trans Ci fib]
+22.6 +17.1 71 +27 +33 душно 1016.8 984.2 +17.1
09 19.06 ЮВ 1 30 км 8/5 600 м
[Cu med, cong Ci fib]
+24.7 +16.1 59 +28 +37 душно 1016.2 983.8
12 19.06 ЮВ 2 50 км 8/5 600 м
[Cu med, cong Ci fib]
+27.2 +16.7 53 +31 +38 душно 1014.8 982.8
15 19.06 В 2 30 км 9/3 600 м
[Cu hum Ci fib]
+26.2 +17.0 57 +30 +33 душно 1013.2 981.1
18 19.06 В 1 27 км 8/0
[Ac trans Ci fib]
+24.1 +17.9 68 +28 +28 душно 1013.3 981.0 +27.5
21 19.06 В 1 10 км 4/0
[Ac trans Ci fib]
+20.7 +18.0 85 +26 +26 душно 1013.8 981.1
00 20.06 С 1 10 км 6/0
[Ac trans Ci fib]
+19.2 +17.4 89 +22 +22 комфорт 1013.6 980.7
03 20.06 В 1 15 км 5/0
[Ac trans Ci fib]
+18.5 +17.2 92 +20 +21 1013.5 980.6
06 20.06 В 2 20 км 8/6 600 м
[Cb calv Ac trans]
+22.9 +18.8 78 +29 +31 очень
душно
1013.3 980.8 +18.5
09 20.06 В 2 25 км гроза без осадков {ливн. осадки} 8/8 600 м
[Cb cap]
+24.0 +21.1 84 +30 +34 очень
душно
1012.7 980.4
12 20.06 ЮЗ 4 35 км {гроза, ливн. осадки} 8/5 600 м
[Cb calv Ci fib]
+29.0 +18.7 54 +34 +39 очень
душно
1011.5 979.7
15 20.06 ЮЗ 3 30 км гроза без осадков 8/6 600 м
[Cb calv Ci fib]
+29.0 +18.5 53 +34 +36 очень
душно
1010.8 979.1
18 20.06 Ю 4 28 км {гроза} 6/3 600 м
[Cb calv Ci fib]
+25.2 +19.3 70 +30 +30 душно 1011.6 979.4 +29.5 8
21 20.06 штиль 0 10 км зарница 6/3 600 м
[Cb cap Ci fib]
+21.8 +18.7 83 +27 +27 душно 1012.9 980.3
00 21.06 З 4 10 км 4/0
[Ci fib]
+18.4 +17.1 92 +19 +19 1014.0 981.0
06 21.06 ЮЗ 3 26 км 5/0
[Ci]
+22.3 +19.0 82 +28 +33 душно 1014.3 981.7 +17.4
09 21.06 Ю 2 35 км 5/1 600 м
[Cu hum Ac trans Ci fib]
+27.8 +17.8 55 +32 +44 душно 1014.1 982.1
12 21.06 ЮВ 2 25 км гроза без осадков {ливн. осадки} 9/8 600 м
[Cb calv Ac trans]
+22.2 +17.4 74 +27 +29 душно 1014.2 981.6
15 21.06 ЮЗ 2 23 км в посл. час ливневой дождь {гроза} 9/8 660 м
[Cb calv Ac trans]
+21.8 +19.0 84 +27 +28 душно 1013.8 981.2
18 21.06 ЮЗ 1 20 км гроза без осадков {ливн. осадки} 9/6 600 м
[Cb calv Ac trans]
+19.6 +17.7 89 +23 +23 комфорт 1014.0 981.2 +29.0 3
21 21.06 штиль 0 10 км зарница {гроза, ливн. осадки} 4/0
[Ci fib]
+18.7 +17.2 91 +20 +20 1015.2 982.2
00 22.06 штиль 0 10 км {гроза, ливн. осадки} 3/0
[Ac trans]
+17.4 +16.7 96 +17 +17 1016.2 983.0
03 22.06 штиль 0 8000 м дымка 8/0
[Ac trans Ci]
+16.8 +16.5 98 +17 +17 1016.6 983.4
06 22.06 штиль 0 13 км слаб. ливневой дождь 9/8 600 м
[Cb cap Ac trans]
+19.3 +18.5 95 +21 +23 комфорт 1017.2 984.2 +16.5 2
09 22.06 С 2 17 км {ливн. осадки} 9/8 600 м
[Cb calv Ac trans]
+21.8 +19.0 84 +27 +29 душно 1017.9 985.2
12 22.06 С 2 30 км {ливн. осадки} 8/5 600 м
[Cu med, cong Ac trans]
+23.9 +18.6 72 +28 +33 душно 1017.4 984.9
15 22.06 С 2 27 км 9/6 600 м
[Cb calv Ac trans Ci fib]
+25.3 +18.8 67 +30 +32 душно 1016.1 983.8
18 22.06 С 4 24 км гроза без осадков 9/8 660 м
[Cb calv Ac trans]
+20.4 +18.2 87 +24 +24 комфорт 1017.2 984.3 +25.7 0.0
00 23.06 штиль 0 4000 м дымка {гроза, ливн. осадки} 9/3 600 м
[Cb calv Ac trans]
+17.2 +16.9 98 +17 +17 1017.2 984.0
06 23.06 штиль 0 22 км {туман} 9/3 600 м
[Cu med, cong Ac trans Ci fib]
+21.2 +18.8 86 +26 +29 душно 1017.0 984.2 +16.6 10
12 23.06 штиль 0 35 км 5/5 600 м
[Cu Sc]
+26.3 +17.3 58 +30 +41 душно 1016.5 984.3
18 23.06 С 4 25 км 5/3 600 м
[Cb calv Ac trans Ci fib]
+21.4 +18.4 83 +26 +26 душно 1017.0 984.3 +26.6
00 24.06 С 3 10 км слаб. ливневой дождь 9/4 600 м
[Cb calv Ac trans]
+18.8 +17.8 94 +20 +20 1018.9 985.8
06 24.06 СВ 2 20 км {ливн. осадки} 6/6 600 м
[Cb calv]
+19.4 +17.1 87 +22 +25 комфорт 1020.7 987.6 +18.5 0.3
12 24.06 СВ 3 30 км 9/8 600 м
[Cb calv Ac trans]
+21.6 +17.9 79 +26 +28 душно 1022.3 989.4
18 24.06 СВ 2 27 км 1/0
[Ac trans]
+22.8 +19.4 81 +29 +29 очень
душно
1022.3 989.5 +24.5
06 25.06 СВ 2 28 км 3/0
[Ac trans Ci fib]
+20.6 +14.8 69 +24 +30 комфорт 1026.3 993.2 +17.1

 

Местоположение метеостанции Ямполь (Хмельницкая область, Украина): широта 49.97 долгота 26.25 высота над уровнем моря 282 м.

В архиве по умолчанию представлена погода в Ямполе за последнюю неделю. Архивные данные за месяц целиком и за предыдущие месяцы, начиная с января 2011 года, Вы можете получить, выбрав интересующий диапазон дат из раскрывающегося списка и нажав кнопку "Ввод!".


*Определитесь, кто Вы:
робот инопланетянин человек

Внимание! Время в таблицах - всемирное. Для получения местного времени необходимо прибавить поправку, которая равна 2 ч.

Смотрите также архив погоды в соседних городах и на ближайших метеорологических станциях:

Погода в Кременце (Тернопольская область, Украина) (41 км)
Погода в Шепетовке (Хмельницкая область, Украина) (60 км)
Погода в Дубно (Ровенская область, Украина) (61 км)
Погода в Тернополе (Тернопольская область, Украина) (64 км)
Погода в Ровно (Ровенская область, Украина) (68 км)
Погода в Хмельницком (Хмельницкая область, Украина) (80 км)
Погода в Бродах (Львовская область, Украина) (80 км)
Погода в Луцке (Волынская область, Украина) (97 км)
Погода в Чорткове (Тернопольская область, Украина) (111 км)
Погода в Бережанах (Львовская область, Украина) (111 км)

Пояснения к столбцам:

Ветер - указаны скорость ветра в м/с - средняя за 10 мин, порывы в срок и между сроками (в фигурных скобках) и направление, откуда дует ветер: С - северный, СВ - северо-восточный, В - восточный, ЮВ - юго-восточный, Ю - южный, ЮЗ - юго-западный, З - западный, СЗ - северо-западный.
Видимость - горизонтальная дальность видимости в метрах или километрах. При видимости от 1 до 10 км при отсутствии осадков обычно наблюдается дымка, при ухудшении видимости до 1 км и менее - туман. В сухую погоду видимость может ухудшаться дымом, пылью или мглою.
Явления - указаны атмосферные явления, наблюдавшиеся в срок или в последний час перед сроком; фигурными скобками обозначены явления, наблюдавшиеся между сроками (за 1-3 часа до срока); квадратными скобками обозначены град или гололедные отложения с указанием их диаметра в мм.
Облачность - указаны через наклонную черту общая и нижняя облачность в баллах и высота нижней границы облаков в метрах; квадратными скобками обозначены формы облаков: Ci - перистые, Cs - перисто-слоистые, Cc - перисто-кучевые, Ac - высококучевые, As - высокослоистые, Sc - слоисто-кучевые, Ns - слоисто-дождевые, Cu - кучевые, Cb - кучево-дождевые. Подробнее классификацию облаков см. в Атласе облаков (PDF).
T - Температура воздуха - температура, измеренная на высоте 2 м над землей.
Td - Температура точки росы - температура, при понижении до которой содержащийся в воздухе водяной пар достигнет насыщения.
f - Относительная влажность воздуха - влажноcть воздуха, измеренная на высоте 2 м над землей.
Te - Эффективная температура - температура, которую ощущает одетый по сезону человек в тени. Характеристика душности погоды. При расчете учитывается влияние влажности воздуха и скорости ветра на теплоощущения человека.
Tes - Эффективная температура на солнце - температура, которую ощущает человек, с поправкой на солнечный нагрев. Характеристика знойности погоды. Зависит от высоты солнца над горизонтом, облачности и скорости ветра. Ночью, в пасмурную погоду, а также при ветре 12 м/с и более поправка равна нулю.
P - Атмосферное давление - приведенное к уровню моря атмосферное давление.
Po - Атмосферное давление - измеренное на уровне метеостанции атмосферное давление.
Tmin - Минимальная температура - минимум температуры воздуха на высоте 2 м над землей.
Tmax - Максимальная температура - максимум температуры воздуха на высоте 2 м над землей.
R - Количество осадков - Количество выпавших осадков за период времени, мм. При наведении курсора мыши на число - период времени, за который выпало указанное количество осадков.
R24 - Количество осадков - Количество выпавших осадков за 24 часа, мм.
S - Снежный покров - Высота снежного покрова, см. При наведении курсора мыши на число - состояние снежного покрова и степень покрытия местности в баллах.